• MPC Preparation (Info)

  • MPEC 2013-L46 : 2010 VM1

    The following Minor Planet Electronic Circular may be linked-to from your own Web pages, but must not otherwise be redistributed electronically.

    A form allowing access to any MPEC is at the bottom of this page.


    Read MPEC 2013-L45 Read MPEC 2013-L47


    M.P.E.C. 2013-L46                                Issued 2013 June 10, 10:44 UT
    
         The Minor Planet Electronic Circulars contain information on unusual
             minor planets and routine data on comets.  They are published
       on behalf of Commission 20 of the International Astronomical Union by the
              Minor Planet Center, Smithsonian Astrophysical Observatory,
                              Cambridge, MA 02138, U.S.A.
    
                 Prepared using the Tamkin Foundation Computer Network
    
                                  MPC@CFA.HARVARD.EDU
                URL https://www.minorplanetcenter.net/    ISSN 1523-6714
    
                                       2010 VM1
    
                               Revision to MPEC 2010-V48
    
    Additional Observations:
         K10V01M  C2013 06 07.42921 22 40 22.44 +03 56 14.5          21.1 VuEL046G96
         K10V01M  C2013 06 07.43569 22 40 23.95 +03 56 22.3          20.7 VuEL046G96
         K10V01M  C2013 06 07.44208 22 40 25.42 +03 56 29.6          20.7 VuEL046G96
         K10V01M  C2013 06 07.44838 22 40 26.86 +03 56 37.0          20.7 VuEL046G96
         K10V01M  C2013 06 07.46135 22 40 29.85 +03 56 52.4          20.8 VuEL046G96
         K10V01M  C2013 06 07.46202 22 40 30.00 +03 56 52.6          20.6 VuEL046G96
         K10V01M  C2013 06 07.46271 22 40 30.14 +03 56 53.9          21.0 VuEL046G96
         K10V01M  C2013 06 07.46338 22 40 30.32 +03 56 54.9          20.8 VuEL046G96
         K10V01M KC2013 06 08.39048322 44 08.00 +04 15 09.7          20.8 RqEL046W85
         K10V01M KC2013 06 08.39340722 44 08.67 +04 15 13.2          20.9 RqEL046W85
         K10V01M KC2013 06 08.39632722 44 09.34 +04 15 16.3          21.1 RqEL046W85
         K10V01M KC2013 06 08.39924622 44 10.00 +04 15 19.9          20.6 RqEL046W85
         K10V01M KC2013 06 08.42433 22 44 16.38 +04 15 32.2          20.5 RoEL046291
         K10V01M KC2013 06 08.42658 22 44 16.84 +04 15 35.7          20.8 RoEL046291
         K10V01M KC2013 06 08.42847 22 44 17.26 +04 15 37.0          20.4 RoEL046291
         K10V01M  C2013 06 08.43337 22 44 18.42 +04 15 42.2          21.1 VuEL046G96
         K10V01M  C2013 06 08.43940 22 44 19.78 +04 15 49.5          21.1 VuEL046G96
         K10V01M  C2013 06 08.45137 22 44 22.52 +04 16 03.3          20.6 VuEL046G96
         K10V01M  C2013 06 08.45971 22 44 24.46 +04 16 12.6          20.7 VuEL046G96
         K10V01M  C2013 06 08.46038 22 44 24.61 +04 16 13.9          21.3 VuEL046G96
         K10V01M  C2013 06 08.46106 22 44 24.79 +04 16 14.1          20.7 VuEL046G96
         K10V01M  C2013 06 08.46175 22 44 24.93 +04 16 15.2          20.6 VuEL046G96
         K10V01M  C2013 06 09.38654 22 48 01.48 +04 33 56.7          20.5 RtEL046H01
         K10V01M  C2013 06 09.39209 22 48 02.75 +04 34 03.1          20.8 RtEL046H01
         K10V01M  C2013 06 09.40324 22 48 05.31 +04 34 15.9          20.5 RtEL046H01
         K10V01M  C2013 06 09.41022 22 48 06.92 +04 34 23.8          20.8 RtEL046H01
         K10V01M  C2013 06 10.37225 22 51 50.95 +04 52 34.3          20.3 RtEL046H01
         K10V01M  C2013 06 10.37555 22 51 51.70 +04 52 37.7          20.1 RtEL046H01
         K10V01M  C2013 06 10.39748 22 51 56.73 +04 53 02.9          20.6 RtEL046H01
         K10V01M  C2013 06 10.41055 22 51 59.71 +04 53 17.6          20.1 RtEL046H01
         K10V01M  C2013 06 10.41429 22 52 00.58 +04 53 21.9          21.1 VuEL046G96
         K10V01M  C2013 06 10.41900 22 52 01.66 +04 53 27.9          20.4 VuEL046G96
         K10V01M  C2013 06 10.42376 22 52 02.74 +04 53 32.8          20.9 VuEL046G96
         K10V01M  C2013 06 10.42855 22 52 03.86 +04 53 38.1          20.5 VuEL046G96
    
    Observer details:
    291 LPL/Spacewatch II.  Observer R. S. McMillan.  1.8-m f/2.7 reflector + CCD.
    G96 Mt. Lemmon Survey.  Observers A. Boattini, R. A. Kowalski.  Measurers
        A. Boattini, E. J. Christensen, A. R. Gibbs, A. D. Grauer, R. E. Hill,
        J. A. Johnson, R. A. Kowalski, S. M. Larson, R. H. McNaught, F. C. Shelly.
        1.5-m reflector + CCD.
    H01 Magdalena Ridge Observatory, Socorro.  Observers W. H. Ryan, E. V. Ryan.
        Measurer W. H. Ryan.  2.4-m f/8.9 reflector + CCD.
    W85 Cerro Tololo-LCOGT A.  Observers E. J. Christensen, S. M. Larson,
        T. Lister.  Measurer T. Lister.  1.0-m f/8 Ritchey-Chretien + CCD.
    
    First and last observations above in comparison with prediction:
    Residuals in seconds of arc (or two decimals in degrees), reference and Delta-T
    130607 G96 0.33- 0.01-    130610 G96 0.33- 0.01-    MPO186461   +0.26 day
    
    Orbital elements:
    2010 VM1                                                 Earth MOID = 0.1751 AU
    Epoch 2013 Apr. 18.0 TT = JDT 2456400.5                 MPC
    M 339.16763              (2000.0)            P               Q
    n   0.32293935     Peri.  128.83566     +0.44752271     +0.89401187
    a   2.1040468      Node   167.69448     -0.84866877     +0.43218909
    e   0.4439184      Incl.    5.81459     -0.28193038     +0.11813284
    P   3.05           H   20.1           G   0.15           U   3
    Residuals in seconds of arc
    101102 F51  0.0   0.1+    101114 568  0.0   0.0     130608 G96  0.0   0.1+
    101102 F51  0.1+  0.1+    101114 568  0.0   0.0     130608 G96  0.2-  0.0
    101102 F51  0.1+  0.1-    130607 G96  0.1-  0.1-    130608 G96  0.2+  0.3-
    101103 291  0.1+  0.1+    130607 G96  0.1+  0.1+    130608 G96  0.2+  0.2+
    101103 291  0.5+  0.1-    130607 G96  0.0   0.1-    130608 G96  0.5+  0.4-
    101103 291  0.2-  0.0     130607 G96  0.2-  0.1-    130608 G96  0.2+  0.1-
    101104 H01  0.4-  0.2-    130607 G96  0.2-  0.1+    130609 H01  0.1+  0.1-
    101104 H01  0.3-  0.2-    130607 G96  0.3-  0.5-    130609 H01  0.1+  0.0
    101104 H01  0.4-  0.2-    130607 G96  0.6-  0.0     130609 H01  0.1+  0.0
    101104 H01  0.5-  0.1-    130607 G96  0.2-  0.2+    130609 H01  0.2+  0.1-
    101104 H21  0.1-  0.4+    130608 W85  0.0   0.1-    130610 H01  0.0   0.1-
    101104 H21  0.4-  0.3-    130608 W85  0.0   0.0     130610 H01  0.1-  0.4-
    101104 H21  0.1-  0.1+    130608 W85  0.1+  0.2-    130610 H01  0.2+  0.0
    101105 291  0.1+  1.1-    130608 W85  0.1-  0.0     130610 H01  0.1+  0.1-
    101105 291  0.0   0.9+    130608 291  0.8+  0.2+    130610 G96  0.4-  0.4-
    101108 H21  0.3-  0.4+    130608 291  0.1-  1.1+    130610 G96  0.3-  0.3+
    101108 H21  0.4-  0.4-    130608 291  0.3-  0.2+    130610 G96  0.4-  0.2-
    101114 568  0.0   0.0     130608 G96  0.3+  0.2-    130610 G96  0.1+  0.3-
    
    Ephemeris:
    2010 VM1                 a,e,i = 2.10, 0.44, 6                   q = 1.1700
    Date    TT    R. A. (2000) Decl.     Delta      r     Elong.  Phase     V
    2013 05 11    20 49 15.1 -05 34 58   0.6209  1.2480    97.0    53.4    21.5
    ...
    2013 05 26    21 50 29.6 -00 19 23   0.5676  1.2029    94.9    57.0    21.3
    ...
    2013 06 03    22 22 48.7 +02 27 55   0.5501  1.1863    93.9    58.5    21.3
    ...
    2013 06 09    22 46 30.3 +04 26 42   0.5410  1.1775    93.3    59.4    21.3
    2013 06 10    22 50 23.5 +04 45 42   0.5397  1.1764    93.2    59.5    21.2
    2013 06 11    22 54 15.5 +05 04 26   0.5386  1.1753    93.2    59.6    21.2
    ...
    2013 06 17    23 16 59.8 +06 50 48   0.5332  1.1710    92.9    60.0    21.2
    ...
    2013 06 25    23 45 53.5 +08 54 23   0.5292  1.1706    93.0    60.1    21.2
    ...
    2013 07 10    00 34 35.0 +11 42 02   0.5271  1.1862    95.1    58.6    21.2
    
    A. U. Tomatic                (C) Copyright 2013 MPC           M.P.E.C. 2013-L46
    

    Read MPEC 2013-L45 Read MPEC 2013-L47


    MPEC number:

    Enter an MPEC number in one of the following forms:

    • 1997-B01 (the full form)
    • J97B01 (the packed version of the full form)
    • B01 (the abbreviated form)